Location: Newark
(21.1200°N, 73.4000°E)
Time: 03:39:20
(UTC+00:00)

Explorer 11/Cluster Stage 4 - Pass Details

Date: 26 January 2020
Orbit: 467 x 1259 km, 28.8° (Epoch: 18 February)

Event Time Altitude Azimuth Distance (km) Brightness Sun altitude
Rises 13:42:46 0° 290° (WNW) 3,926 11.1 -12.0°
Reaches altitude 10° 13:45:48 10° 290° (WNW) 2,857 10.3 -12.7°
Maximum altitude 13:52:44 82° 204° (SSW) 900 6.9 -14.2°
Enters shadow 13:57:30 14° 116° (ESE) 2,022 8.2 -15.3°
Drops below altitude 10° 13:58:13 10° 116° (ESE) 2,276 - -15.5°
Sets 14:00:25 0° 115° (ESE) 3,085 - -16.0°
